Regional Weather Roundup
Issued by NWS Mt. Holly, NJ

Home | Current Version | Previous Version | Text Only | Print | Product List | Glossary On
Versions: 1 2 3 4 5 6 7 8 9 10 11 12 13 14 15 16 17 18 19 20 21 22 23 24 25 26 27 28 29 30 31 32 33 34 35 36 37 38 39 40 41 42 43 44 45 46 47 48 49 50
000
ASUS41 KPHI 111110
RWRPHI

REGIONAL WEATHER ROUNDUP
NATIONAL WEATHER SERVICE MOUNT HOLLY NJ
700 AM EDT FRI JUL 11 2014

NOTE:  "FAIR" INDICATES FEW OR NO CLOUDS BELOW 12,000 FEET WITH NO
SIGNIFICANT WEATHER AND/OR OBSTRUCTIONS TO VISIBILITY.

 * = STATION DOES NOT REPORT PRECIPITATION (E.G. RAIN, SNOW, ETC.)
        OR FOG.

NJZ015>026-111200-
SOUTHERN NEW JERSEY

CITY           SKY/WX    TMP DP  RH WIND       PRES   REMARKS
POMONA         PTSUNNY   68  68 100 N5        30.15R FOG
RIO GRANDE*    CLOUDY    70  66  88 N5        30.15S
MILLVILLE      PTSUNNY   69  67  93 NE6       30.15R
WRIGHTSTOWN    SUNNY     67  65  93 N3        30.14R
MOUNT HOLLY    SUNNY     68  65  90 CALM      30.16R
TRENTON        SUNNY     68  62  81 N5        30.16R

$$
NJZ001>014-111200-
NORTHERN NEW JERSEY

CITY           SKY/WX    TMP DP  RH WIND       PRES   REMARKS
SUSSEX         MOSUNNY   67  57  70 N5        30.21R
ANDOVER*         N/A     62  60  93 NE3       30.21R
NEWARK         PTSUNNY   72  58  61 N12       30.17R
TETERBORO      MOSUNNY   73  54  51 N7        30.16R
CALDWELL       MOSUNNY   66  61  84 VRB3      30.19R
SOMERVILLE     SUNNY     66  62  87 NW5       30.16R
ALLAIRE*       SUNNY     70  64  83 NE3       30.16R
TOMS RIVER*    CLOUDY    66  66 100 CALM      30.16R

$$
PAZ043-044-047-054-055-060>062-066>071-111200-
EASTERN PENNSYLVANIA

CITY           SKY/WX    TMP DP  RH WIND       PRES   REMARKS
PHILADELPHIA   MOSUNNY   72  62  71 N8        30.17R
NORTH PHILA    SUNNY     71  63  75 CALM      30.18R
BLUE BELL      SUNNY     68  64  88 CALM      30.17R
DOYLESTOWN     SUNNY     65  64  97 N5        30.18R
QUAKERTOWN*    SUNNY     66  64  94 NE3       30.19R
POTTSTOWN      SUNNY     67  64  90 CALM      30.19R
LANCASTER      SUNNY     66  64  93 CALM      30.17R FOG
COATESVILLE    SUNNY     66  66 100 N3        30.19R FOG
READING        MOSUNNY   68  63  84 N7        30.17R
ALLENTOWN      PTSUNNY   67  61  81 CALM      30.19R
MOUNT POCONO   PTSUNNY   62  54  74 NE5       30.24R
HAZLETON       CLOUDY    59  57  94 CALM      30.26R
WILKES BARRE   MOSUNNY   61  55  81 SE3       30.23R

$$
DEZALL-MDZ008-012-015-019-020-111200-
DELAWARE AND EASTERN MARYLAND

CITY           SKY/WX    TMP DP  RH WIND       PRES   REMARKS
WILMINGTON     SUNNY     70  67  90 N6        30.17R
DOVER          CLOUDY    70  70 100 N6        30.13R
GEORGETOWN     CLOUDY    71  69  93 E7        30.15R
EASTON         PTSUNNY   70  70 100 N3        30.19R
PATUXENT       PTSUNNY   72  69  90 NE7       30.14R
OCEAN CITY     FOG       70  68  93 N5        30.13R VSB 3/4
WALLOPS ISLAND FOG       69  69 100 N5        30.14R VSB 1/4
CAMBRIDGE      CLOUDY    72  68  88 N3        30.15R
SALISBURY      MOSUNNY   72  68  87 CALM      30.14R FOG

$$
PAZ001-021-NYZ056-072-MDZ011-DCZ001-111200-
OTHER NEARBY LOCATIONS

CITY           SKY/WX    TMP DP  RH WIND       PRES   REMARKS
HARRISBURG     PTSUNNY   68  64  87 NW6       30.17S
STATE COLLEGE  FOG       57  57 100 CALM      30.23R VSB 1/8
WILLIAMSPORT   SUNNY     61  57  87 NW5       30.22R
BINGHAMTON     SUNNY     56  51  84 E3        30.25R
NEW YORK CITY  MOSUNNY   72  56  57 VRB5      30.20R
BALTIMORE      MOSUNNY   68  64  87 N3        30.16R
WASHINGTON DC  MOSUNNY   72  64  78 NE5       30.17R

$$


USA.gov is the U.S. government's official web portal to all federal, state and local government web resources and services.